Вернуться в каталог

FENGYUN 1C DEB

АктивенPO
NORAD 32192·DEBRIS·🇨🇳 China

Запущен May 10, 1999 с Taiyuan Satellite Launch Center

Loading…

Ближайшие Пролёты (ближайшие 24 часа)

TLE

СвежийSource: Space-Track

Эпоха: Sep 13, 2026, 13:35 UTC

1 32192U 99025CUN 26256.56664536  .00000206  00000-0  19774-3 0  9993
2 32192  98.6195 109.8918 0181922 136.3802 225.1901 13.82696466965101

Отслеживайте FENGYUN 1C DEB в реальном времени с AllMySat

Download on the App Store